Location: Gloria Glens Park
(41.0584°N, 81.8979°W)
Time: 21:37:47
(UTC+00:00)

Daily predictions for brighter satellites

Satellite Brightness Start Highest point End
(mag) Time Altitude Azimuth Time Altitude Azimuth Time Altitude Azimuth
Cosmos 1328 Rocket 3.7 12:01:38 10° NNW 12:05:55 52° W 12:10:09 10° S
Nadezhda 4 Rocket 4.1 12:02:01 10° S 12:08:09 90° NW 12:14:23 10° N
CZ-4C R/B 4.5 22:24:06 10° N 22:27:13 13° NNE 22:30:35 10° NE
CZ-4B R/B 4.3 22:27:52 10° ESE 22:31:59 22° ENE 22:36:04 10° NNE
Aureole 3 4.3 22:27:33 10° S 22:32:40 83° E 22:39:12 10° N
Cosmos 1408 Rocket 4.0 22:29:15 10° N 22:33:19 38° ENE 22:37:23 10° SSE
USA 267 4.2 22:29:47 10° NE 22:35:47 40° NNW 22:41:48 10° W
FengYun 1-2 T 4.2 22:34:07 10° SSE 22:39:43 75° ENE 22:45:17 10° N
ARGOS 4.3 22:36:28 10° ESE 22:40:23 21° ENE 22:44:17 10° NNE
Cosmos 1464 Rocket 4.0 22:36:56 10° S 22:43:16 78° E 22:49:40 10° N
CZ-4B R/B 3.3 22:39:41 10° S 22:43:55 70° WSW 22:47:59 10° NNW
AQUARIUS 4.2 22:40:08 10° SSE 22:44:29 55° ENE 22:48:53 10° N
ERBS 2.9 22:41:54 10° WSW 22:45:00 48° NW 22:48:08 10° NE
Cosmos 1777 Rocket 4.3 22:42:56 10° NNW 22:48:13 77° WSW 22:53:29 10° SSE
H-2A R/B 2.5 22:46:35 10° SE 22:51:27 40° ENE 22:56:13 10° N
Cosmos 1271 Rocket 4.1 22:48:42 10° SSW 22:52:24 42° WNW 22:56:11 10° N
Cosmos 1782 4.4 22:50:56 10° SE 22:53:29 17° E 22:55:00 14° ENE
USA 305 4.5 22:50:05 10° W 22:53:41 26° NNW 22:57:17 10° NNE
SKYMED 2 4.5 22:52:15 10° NE 22:56:01 28° E 22:59:46 10° SSE
MOS 1-B Rocket 4.3 22:52:28 10° NNE 22:58:03 47° E 23:04:16 10° S
Cosmos 1898 Rocket 4.4 22:53:51 10° N 22:58:13 26° ENE 23:02:32 10° ESE
Cosmos 468 Rocket 4.3 22:58:41 10° S 23:03:30 43° ESE 23:08:23 10° NNE
Nadezhda 4 Rocket 4.0 22:57:22 10° N 23:03:41 74° E 23:10:00 10° SSE
CZ-2C R/B 3.1 22:58:53 10° NNE 23:03:43 37° E 23:08:29 10° SSE
SJ 16-02 1.8 23:01:03 10° NNW 23:05:23 64° WSW 23:09:42 10° S
Cosmos 1340 Rocket 2.9 23:03:06 10° N 23:07:05 53° ENE 23:11:04 10° SSE
ISS -1.4 23:05:48 10° NW 23:07:42 14° N 23:09:09 12° NNE
Cosmos 1500 Rocket 3.7 23:03:30 10° N 23:07:52 52° E 23:12:11 10° SSE
USA 234 3.7 23:01:31 10° SE 23:08:00 66° SW 23:14:30 10° NW
NOSS 3-1 (A) 4.4 23:01:51 10° NNW 23:08:57 43° NE 23:17:08 10° ESE
NOSS 3-1 (C) 4.1 23:05:10 10° NNW 23:12:44 66° NE 23:21:30 10° SE
SMAP 3.6 23:08:16 10° S 23:12:52 63° W 23:17:29 10° NNW
Cosmos 1933 3.6 23:09:10 10° SSE 23:13:01 44° E 23:16:53 10° NNE
Cosmos 1092 Rocket 4.2 23:06:58 10° N 23:13:09 51° ENE 23:19:17 10° SSE
Cosmos 540 Rocket 4.1 23:11:18 10° SSE 23:15:47 32° E 23:18:31 20° NE
Cosmos 1842 Rocket 4.2 23:12:20 10° SSW 23:16:42 60° W 23:21:08 10° N
Cosmos 1805 Rocket 3.9 23:14:29 10° N 23:18:34 38° ENE 23:22:36 10° SSE
Cosmos 1602 4.1 23:18:38 10° N 23:22:15 39° ENE 23:25:52 10° SSE
Cosmos 2034 Rocket 4.3 23:20:08 10° SSW 23:26:16 70° W 23:32:26 10° N
Cosmos 1428 Rocket 4.5 23:21:10 10° N 23:27:11 56° E 23:33:12 10° SSE
Cosmos 44 3.1 23:22:48 10° NNW 23:27:33 64° NE 23:31:58 10° SE
GEOS 3 Rocket 3.9 23:24:04 14° ESE 23:28:26 47° NE 23:33:23 10° NNW
Cosmos 1697 Rocket 3.1 23:24:09 10° N 23:29:25 39° ENE 23:33:41 15° ESE
Cosmos 1627 Rocket 4.4 23:24:12 10° N 23:30:19 59° E 23:36:20 10° SSE
Cosmos 1980 Rocket 3.3 23:26:22 10° N 23:30:31 23° NE 23:30:31 23° NE
CZ-2D R/B 3.5 23:27:40 10° S 23:31:30 69° W 23:35:20 10° NNW
Sich 1 3.3 23:27:40 10° N 23:31:44 41° ENE 23:35:48 10° SSE
SJ-11-01 4.3 23:28:06 10° SSE 23:32:44 56° ENE 23:37:23 10° N
SL-08 RB Rocket 4.1 23:30:46 10° SE 23:35:05 39° ENE 23:39:25 10° N
Cosmos 2082 Rocket 2.9 23:31:39 10° SSE 23:36:37 32° ESE 23:37:35 30° E
Cosmos 1656 3.6 23:33:13 10° NNW 23:38:47 88° WSW 23:44:23 10° SSE
COSMOS 2406 3.3 23:33:57 10° S 23:39:34 58° ESE 23:42:52 25° NE
Cosmos 2279 Rocket 4.2 23:37:30 10° SSE 23:43:23 46° E 23:49:17 10° NNE
COSMO-SKYMED 1 2.6 23:39:51 10° N 23:44:13 84° WNW 23:48:33 10° SSW
Cosmos 1763 Rocket 3.6 23:41:21 10° SSW 23:46:23 72° WNW 23:50:43 14° NNE
Okean O Rocket 1.5 23:42:25 10° SSE 23:46:50 79° ENE 23:51:19 10° N
CZ-4 R/B 4.3 23:42:52 10° SSE 23:46:58 73° ENE 23:51:05 10° N
ATLAS CENTAUR R/B 3.2 23:36:22 10° SW 23:47:11 72° NW 23:49:45 29° NNE
Cosmos 841 Rocket 3.6 23:42:20 10° S 23:47:18 49° ESE 23:48:36 40° ENE
Cosmos 1937 Rocket 3.7 23:42:21 10° N 23:47:31 49° ENE 23:50:06 27° SE
Landsat 5 3.3 23:45:13 25° NNE 23:47:36 78° E 23:51:39 10° S
deb Chang Zheng 4 3.6 23:44:32 10° S 23:48:50 80° WSW 23:53:10 10° NNW
ATLAS CENTAUR R/B 4.3 23:48:48 10° NW 23:48:58 10° NNW 23:49:08 10° NNW
TRACE 4.5 23:48:35 55° NE 23:49:16 73° ESE 23:52:58 10° S
Meteor 1-26 Rocket 4.2 23:45:24 10° S 23:51:15 79° E 23:57:17 10° NNE
Cosmos 1634 Rocket 3.9 23:46:08 10° S 23:52:27 87° E 23:58:50 10° N
USA 276 4.2 23:53:10 10° NW 23:54:31 19° NNW 23:54:31 19° NNW
